User: anonymous   Login
Location: Unspecified
(0.0000°N, 0.0000°E)
Time: 14:49:38
(UTC+00:00)
Language:

Orbcomm A7 (FM11) - Orbit

View from above orbital plane
View from above orbital plane
View from above satellite
View from above satellite

Ground track
Ground track

The orbit data is extracted from the following two-line orbital elements,

1 25114U 97084C   17205.98555712 +.00000022 +00000-0 +53367-4 0  9990
2 25114 045.0171 048.4541 0007009 105.3492 254.8132 14.38575212025728
Epoch (UTC): 24 July 2017 23:39:12
Eccentricity: 0.0007009
inclination: 45.0171°
perigee height: 758 km
apogee height: 768 km
right ascension of ascending node: 48.4541°
argument of perigee: 105.3492°
revolutions per day: 14.38575212
mean anomaly at epoch: 254.8132°
orbit number at epoch: 2572

The dashed part of the orbit path shows where the satellite is in the earth's shadow,  

DLR